Location: Eymir
(36.7333°N, 29.7833°E)
Time: 18:45:06
(UTC+00:00)

Meteor 2-13 Rocket - Pass Details

Date: 14 January 2026
Orbit: 935 x 958 km, 82.5° (Epoch: 17 February)

Event Time Altitude Azimuth Distance (km) Brightness Sun altitude
Rises 03:44:33 0° 351° (N) 3,630 7.3 -17.4°
Reaches altitude 10° 03:47:04 10° 350° (N) 2,678 6.6 -16.9°
Maximum altitude 03:53:10 76° 265° (W) 974 4.3 -15.8°
Drops below altitude 10° 03:59:12 10° 181° (S) 2,645 7.0 -14.6°
Sets 04:01:40 0° 180° (S) 3,583 7.7 -14.1°
